KLM23F EHAM-ENBR

Flight info

Callsign KLM23F
Flight time N/A
Altitude 36000
Route BERGI M90 LONAM/N0449F390 DCT LARGA DCT PENUN/N0445F380 DCT ALUVA
Aircraft A20N/M-SDE2E3FGHIRWXY/LB1

Departure

Time N/A
Airport Amsterdam Airport Schiphol (EHAM)

Arrival

Time 2026-04-27 14:39
Airport Bergen Airport, Flesland (ENBR)
Time Latitude Longitude Altitude Speed Heading
2026-04-27 14:24 59.30460 4.79761 15420 ft 325 kts 124°
2026-04-27 14:24 59.29477 4.83768 15413 ft 330 kts 101°
2026-04-27 14:24 59.29342 4.88212 15413 ft 329 kts 83°
2026-04-27 14:24 59.29991 4.92441 15411 ft 325 kts 58°
2026-04-27 14:25 59.31479 4.95701 15412 ft 322 kts 33°
2026-04-27 14:25 59.33526 4.97387 15413 ft 321 kts
2026-04-27 14:25 59.35756 4.97430 15411 ft 322 kts 356°
2026-04-27 14:25 59.37999 4.97140 15409 ft 323 kts 356°
2026-04-27 14:26 59.40213 4.96827 15411 ft 323 kts 356°
2026-04-27 14:26 59.42462 4.96467 15059 ft 324 kts 355°
2026-04-27 14:26 59.44688 4.96346 14714 ft 319 kts
2026-04-27 14:26 59.46855 4.97235 14309 ft 317 kts 13°
2026-04-27 14:27 59.49026 4.98246 13602 ft 324 kts 13°
2026-04-27 14:27 59.51043 4.99198 13116 ft 324 kts 13°
2026-04-27 14:27 59.53229 5.00232 12640 ft 322 kts 13°
2026-04-27 14:27 59.55400 5.01259 12178 ft 320 kts 13°
2026-04-27 14:28 59.57528 5.02265 11730 ft 318 kts 13°
2026-04-27 14:28 59.59673 5.03280 11283 ft 316 kts 13°
2026-04-27 14:28 59.61802 5.04293 10836 ft 314 kts 13°
2026-04-27 14:28 59.63917 5.05304 10402 ft 312 kts 13°
2026-04-27 14:29 59.66019 5.06310 9936 ft 310 kts 13°
2026-04-27 14:29 59.68103 5.07306 9456 ft 308 kts 13°
2026-04-27 14:29 59.70181 5.08297 8986 ft 305 kts 13°
2026-04-27 14:29 59.72237 5.09275 8517 ft 303 kts 13°
2026-04-27 14:30 59.74253 5.10237 8065 ft 301 kts 13°
2026-04-27 14:30 59.76282 5.11211 7610 ft 299 kts 13°
2026-04-27 14:30 59.78301 5.12184 7202 ft 297 kts 13°
2026-04-27 14:30 59.80304 5.13153 6808 ft 296 kts 13°
2026-04-27 14:31 59.82295 5.14115 6380 ft 293 kts 13°
2026-04-27 14:31 59.84275 5.15070 5887 ft 292 kts 13°
2026-04-27 14:31 59.86251 5.16023 5386 ft 292 kts 13°
2026-04-27 14:31 59.88226 5.16976 4877 ft 292 kts 14°
2026-04-27 14:32 59.90197 5.17928 4357 ft 291 kts 14°
2026-04-27 14:32 59.92160 5.18878 4028 ft 290 kts 14°
2026-04-27 14:32 59.94128 5.19832 4003 ft 289 kts 14°
2026-04-27 14:32 59.95989 5.20735 4006 ft 269 kts 14°
2026-04-27 14:33 59.97782 5.21602 4010 ft 263 kts 14°
2026-04-27 14:33 59.99556 5.22462 4012 ft 262 kts 14°
2026-04-27 14:33 60.01326 5.23324 4010 ft 262 kts 14°
2026-04-27 14:33 60.03098 5.24190 4010 ft 262 kts 14°
2026-04-27 14:34 60.04868 5.25054 4009 ft 262 kts 14°
2026-04-27 14:34 60.06619 5.25907 3919 ft 253 kts 14°
2026-04-27 14:34 60.08281 5.26720 3813 ft 240 kts 14°
2026-04-27 14:34 60.09859 5.27492 3710 ft 228 kts 14°
2026-04-27 14:35 60.11369 5.27803 3581 ft 218 kts 353°
2026-04-27 14:35 60.12862 5.27330 3328 ft 217 kts 350°
2026-04-27 14:35 60.14352 5.26823 3033 ft 217 kts 350°
2026-04-27 14:35 60.15827 5.26329 2732 ft 212 kts 350°
2026-04-27 14:36 60.17253 5.25855 2442 ft 200 kts 349°
2026-04-27 14:36 60.18579 5.25414 2196 ft 184 kts 349°
2026-04-27 14:36 60.19792 5.25010 1951 ft 168 kts 348°
2026-04-27 14:36 60.20868 5.24652 1712 ft 151 kts 348°
2026-04-27 14:37 60.21866 5.24319 1500 ft 140 kts 347°
2026-04-27 14:37 60.22808 5.24004 1312 ft 135 kts 347°
2026-04-27 14:37 60.23729 5.23692 1084 ft 133 kts 346°
2026-04-27 14:37 60.24640 5.23390 894 ft 131 kts 347°
2026-04-27 14:38 60.25541 5.23101 714 ft 130 kts 346°
2026-04-27 14:38 60.26416 5.22802 540 ft 125 kts 346°
2026-04-27 14:38 60.27268 5.22506 380 ft 122 kts 347°
2026-04-27 14:38 60.28096 5.22241 227 ft 118 kts 347°
2026-04-27 14:39 60.28835 5.21980 163 ft 95 kts 350°
2026-04-27 14:39 60.29408 5.21787 153 ft 71 kts 350°
2026-04-27 14:39 60.29685 5.21711 150 ft 15 kts 22°
2026-04-27 14:39 60.29709 5.21815 149 ft 8 kts 78°
2026-04-27 14:40 60.29720 5.21936 148 ft 9 kts 85°
2026-04-27 14:40 60.29688 5.22026 148 ft 8 kts 137°
2026-04-27 14:40 60.29641 5.22048 148 ft 6 kts 193°
2026-04-27 14:40 60.29581 5.22060 150 ft 19 kts 173°
2026-04-27 14:41 60.29449 5.22105 157 ft 19 kts 170°
2026-04-27 14:41 60.29331 5.22143 161 ft 15 kts 173°
2026-04-27 14:41 60.29236 5.22173 163 ft 13 kts 170°
2026-04-27 14:41 60.29147 5.22204 163 ft 13 kts 169°
2026-04-27 14:42 60.29053 5.22237 163 ft 14 kts 172°
2026-04-27 14:42 60.28953 5.22269 162 ft 15 kts 170°
2026-04-27 14:42 60.28852 5.22303 162 ft 14 kts 171°
2026-04-27 14:42 60.28805 5.22385 164 ft 7 kts 90°
2026-04-27 14:43 60.28795 5.22435 166 ft 2 kts 145°
2026-04-27 14:43 60.28773 5.22450 166 ft 7 kts 172°
2026-04-27 14:43 60.28746 5.22497 167 ft 3 kts 88°
2026-04-27 14:43 60.28749 5.22510 167 ft 0 kts 64°
2026-04-27 14:44 60.28756 5.22522 168 ft 4 kts 46°
2026-04-27 14:44 60.28772 5.22545 170 ft 6 kts 33°
2026-04-27 14:44 60.28788 5.22566 172 ft 4 kts 33°
2026-04-27 14:44 60.28829 5.22621 173 ft 0 kts 33°